Hourly Data Report for July 03, 2022

PITT MEADOWS CS
BRITISH COLUMBIA
Current Station Operator: ECCC - MSC

49°12'29.964" N
122°41'24.076" W
5.00 m
1106178
71775
WMM

Download Data

Hourly Data (July 2022)
Hourly Data Report for July 3, 2022
TIME
LST
Temp Definition
°C
Dew Point Definition
°C
Rel Hum Definition
%
Precip. Amount Definition
mm

Wind Dir Definition
10's deg

Wind Spd Definition
km/h
Visibility Definition
km
Stn Press Definition
kPa
Hmdx Definition


Wind Chill Definition


Weather Definition


00:00 15.7 11.5 76 0.0 8 5   101.17     LegendNANA
01:00 15.8 11.7 77 0.0 10 7   101.17     LegendNANA
02:00 15.6 11.5 76 0.0 9 5   101.13     LegendNANA
03:00 15.7 11.5 76 0.0 9 6   101.14     LegendNANA
04:00 16.0 11.7 76 0.0 11 6   101.16     LegendNANA
05:00 15.5 11.3 76 0.0 12 6   101.18     LegendNANA
06:00 15.4 11.5 78 0.0 8 8   101.19     LegendNANA
07:00 15.4 11.1 76 0.0 11 6   101.21     LegendNANA
08:00 15.4 11.5 77 0.0 13 6   101.21     LegendNANA
09:00 13.9 12.6 92 1.9 13 3   101.24     LegendNANA
10:00 14.0 12.9 93 0.9 11 4   101.26     LegendNANA
11:00 14.1 13.3 95 1.7 8 7   101.28     LegendNANA
12:00 14.1 13.0 93 1.9 11 6   101.29     LegendNANA
13:00 14.3 12.8 91 0.4 7 8   101.29     LegendNANA
14:00 14.7 12.9 89 0.0 9 9   101.32     LegendNANA
15:00 14.7 12.6 88 0.0 9 9   101.32     LegendNANA
16:00 14.7 12.6 87 0.0 7 11   101.31     LegendNANA
17:00 14.8 12.6 87 0.0 9 9   101.31     LegendNANA
18:00 14.2 12.3 88 0.0 8 10   101.32     LegendNANA
19:00 13.8 12.5 92 0.0 7 10   101.35     LegendNANA
20:00 13.6 12.9 96 0.1 7 7   101.36     LegendNANA
21:00 13.4 12.9 97 0.7 9 9   101.36     LegendNANA
22:00 13.2 12.8 97 1.1 8 6   101.36     LegendNANA
23:00 13.2 12.8 97 1.1 8 6   101.37     LegendNANA

Notes on Data Quality.

Legend

  • E = Estimated
  • M = Missing
  • NA = Not Available*
  • [empty] = Indicates an unobserved value
Date modified: